This demonstration page uses our WeatherBlox Daily Observations layout. Learn more.

Left ArrowRight Arrow

Hourly Observations for March 18, 2020

Temp ( °F °C ) Dew Point ( °F °C ) Humidity (%) Winds ( mph kmh ) Pressure ( in mb ) Visibility ( mi km ) Precip ( " mm )
12:53 am 00:53 Cloudy 18 -7.8 14 -10 84 84 W 6 9 30.23 1024 10 16 N/A
1:53 am 01:53 Cloudy 18 -7.8 13 -10.6 81 81 N N/A 30.22 1023 10 16 N/A
2:53 am 02:53 Cloudy 18 -7.8 13 -10.6 81 81 N N/A 30.22 1023 10 16 N/A
3:53 am 03:53 Cloudy 19 -7.2 13 -10.6 77 77 NE 6 9 30.21 1023 10 16 N/A
4:07 am 04:07 Cloudy 19 -7.2 13 -10.6 77 77 NE 6 9 30.28 1025 10 16 N/A
4:53 am 04:53 Cloudy 19 -7.2 13 -10.6 77 77 ENE 6 9 30.20 1023 10 16 N/A
5:53 am 05:53 Cloudy 17 -8.3 11 -11.7 77 77 NE 8 13 30.21 1023 10 16 N/A
6:12 am 06:12 Cloudy 16 -9 10 -12 79 79 E 7 11 30.29 1026 10 16 N/A
6:24 am 06:24 Cloudy 16 -9 10 -12 79 79 ENE 8 13 30.29 1026 10 16 N/A
6:38 am 06:38 Cloudy 16 -8.9 11 -11.7 80 80 E 8 13 30.29 1026 10 16 N/A
6:53 am 06:53 Cloudy 16 -8.9 11 -11.7 80 80 NE 7 11 30.21 1023 10 16 N/A
7:53 am 07:53 Cloudy 14 -10 10 -12.2 84 84 NE 8 13 30.20 1023 10 16 N/A
8:36 am 08:36 Cloudy 14 -10 9 -13 79 79 NE 12 19 30.29 1026 10 16 N/A
8:53 am 08:53 Cloudy 13 -10.6 9 -12.8 84 84 ENE 12 19 30.20 1023 10 16 N/A
9:02 am 09:02 Cloudy 14 -10 9 -13 79 79 ENE 12 19 30.28 1025 10 16 N/A
10:53 am 10:53 Cloudy 18 -7.8 13 -10.6 81 81 E 14 22 30.17 1022 10 16 N/A
11:53 am 11:53 Cloudy 20 -6.7 15 -9.4 81 81 E 16 26 30.15 1021 10 16 N/A
12:53 pm 12:53 Cloudy 22 -5.6 16 -8.9 78 78 E 16 26 30.11 1020 10 16 N/A
1:53 pm 13:53 Cloudy 23 -5 17 -8.3 78 78 E 15 24 30.08 1019 10 16 N/A
2:53 pm 14:53 Cloudy 24 -4.4 18 -7.8 77 77 ENE 15 24 30.06 1018 10 16 N/A
3:53 pm 15:53 Cloudy 24 -4.4 17 -8.3 75 75 ENE 17 28 30.05 1018 10 16 N/A
4:53 pm 16:53 Cloudy 24 -4.4 18 -7.8 77 77 ENE 18 30 30.06 1018 10 16 N/A
5:53 pm 17:53 Cloudy 24 -4.4 18 -7.8 77 77 E 17 28 30.06 1018 10 16 N/A
6:53 pm 18:53 Cloudy 23 -5 17 -8.3 78 78 E 20 31 30.08 1019 10 16 N/A
7:53 pm 19:53 Cloudy 23 -5 17 -8.3 78 78 E 18 30 30.10 1019 10 16 N/A
8:53 pm 20:53 Cloudy 23 -5 17 -8.3 78 78 E 16 26 30.11 1020 10 16 N/A
9:53 pm 21:53 Cloudy 23 -5 18 -7.8 81 81 ENE 13 20 30.14 1021 10 16 N/A
10:53 pm 22:53 Cloudy 22 -5.6 19 -7.2 89 89 ENE 13 20 30.15 1021 10 16 N/A
11:53 pm 23:53 Cloudy 22 -5.6 18 -7.8 85 85 ENE 10 17 30.16 1022 10 16 N/A

Powered by AerisWeather